"Pseudo-MPEC" for P112XIw

Created 2020 Aug 6 7:07:08 UT using Find_Orb

Click here for an explanation of pseudo-MPECs

 
 Astrometry: 
     P112XIw  C2020 07 21[NShUSAstrometrys0[-7'm@redacted;16p$ddk`*A(clickyFUF51
     P112XIw  C2020 07 21WTj,-X;here`QKA^c+)3A_^EJHjd,1l+2!=fk#M#g.ibGRfordR5F51
     P112XIw  C2020 07 21RtO6sy^d=kOcPadm'/JT2hA@X)AdHtTexplanationn)6A\t+y?[F51

Station data:
(F51) Pan-STARRS 1, Haleakala  (N20.707235 W156.255910)  US/Hawaii.
   Observers N. Primak, A. Schultz, S. Watters, J. Thiel, T. Goggia. Measurer
   PS1 Science Consortium. 1.8-m Ritchey-Chrétien + CCD.

Orbital elements:  P112XIw
   Perihelion 2022 May 22.069898 +/- 362 TT =  1:40:39 (JD 2459721.569898)
Epoch 2020 Jul 21.0 TT = JDT 2459051.5   Earth MOID: 0.6990   AutoNEOCP
M 201.98235072 +/- 110              (J2000 ecliptic)
n   0.23582263 +/- 0.406            Peri.  232.91769 +/- 60
a   2.59465163 +/- 2.98             Node   175.30380 +/- 54
e   0.3892267 +/- 0.203             Incl.   31.78104 +/- 28
P   4.18                   H 16.6   G  0.15   U 12.1  SR
q 1.58474386 +/- 1.65    Q 3.60455940 +/- 53.5
From 3 observations 2020 July 21 (34.1 min); mean residual 0".09
Residuals in arcseconds: 
200721 F51  .09-  .02-    200721 F51  .18+  .05+    200721 F51  .09-  .02-    

Ephemerides (geocentric):
Date (UTC) HH   RA              Dec         delta   r     elong  mag " sig PA
---- -- -- --  -------------   -----------  ------ ------ -----  --- ---- ---
2020 08 06 07  15 00 00.785   +13 24 10.24  3.4961 3.5514  84.8 23.0 1599  42
2020 08 06 08  15 00 01.760   +13 23 51.55  3.4966 3.5513  84.8 23.0 1606  42
2020 08 06 09  15 00 02.736   +13 23 32.86  3.4971 3.5513  84.8 23.0 1614  42
2020 08 06 10  15 00 03.714   +13 23 14.16  3.4976 3.5512  84.7 23.0 1621  42
2020 08 06 11  15 00 04.694   +13 22 55.46  3.4981 3.5512  84.7 23.0 1628  42
2020 08 06 12  15 00 05.675   +13 22 36.76  3.4986 3.5512  84.7 23.0 1635  42
2020 08 06 13  15 00 06.658   +13 22 18.06  3.4990 3.5511  84.7 23.0 1643  42
2020 08 06 14  15 00 07.643   +13 21 59.35  3.4995 3.5511  84.6 23.0 1650  42
2020 08 06 15  15 00 08.628   +13 21 40.64  3.5000 3.5510  84.6 23.0 1657  42
2020 08 06 16  15 00 09.616   +13 21 21.93  3.5005 3.5510  84.6 23.0 1665  42
2020 08 06 17  15 00 10.605   +13 21 03.21  3.5010 3.5510  84.5 23.0 1672  42
2020 08 06 18  15 00 11.596   +13 20 44.49  3.5015 3.5509  84.5 23.0 1679  42
2020 08 06 19  15 00 12.588   +13 20 25.77  3.5020 3.5509  84.5 23.0 1687  42
2020 08 06 20  15 00 13.582   +13 20 07.05  3.5025 3.5508  84.4 23.0 1694  42
2020 08 06 21  15 00 14.577   +13 19 48.32  3.5030 3.5508  84.4 23.0 1701  42
2020 08 06 22  15 00 15.574   +13 19 29.59  3.5035 3.5508  84.4 23.0 1709  42
2020 08 06 23  15 00 16.572   +13 19 10.86  3.5040 3.5507  84.4 23.0 1716  42
2020 08 07 00  15 00 17.572   +13 18 52.13  3.5045 3.5507  84.3 23.0 1724  42
2020 08 07 01  15 00 18.574   +13 18 33.39  3.5050 3.5506  84.3 23.0 1731  42
2020 08 07 02  15 00 19.577   +13 18 14.65  3.5055 3.5506  84.3 23.0 1739  42
2020 08 07 03  15 00 20.581   +13 17 55.91  3.5060 3.5506  84.2 23.0 1746  42
2020 08 07 04  15 00 21.587   +13 17 37.16  3.5065 3.5505  84.2 23.0 1754  42
2020 08 07 05  15 00 22.595   +13 17 18.42  3.5070 3.5505  84.2 23.0 1761  42
2020 08 07 06  15 00 23.604   +13 16 59.67  3.5075 3.5504  84.2 23.0 1769  42
2020 08 07 07  15 00 24.615   +13 16 40.91  3.5079 3.5504  84.1 23.0 1776  42
2020 08 07 08  15 00 25.627   +13 16 22.16  3.5084 3.5504  84.1 23.0 1784  42
2020 08 07 09  15 00 26.641   +13 16 03.40  3.5089 3.5503  84.1 23.0 1792  42
2020 08 07 10  15 00 27.657   +13 15 44.64  3.5094 3.5503  84.0 23.0 1799  41
2020 08 07 11  15 00 28.674   +13 15 25.88  3.5099 3.5502  84.0 23.0 1807  41
2020 08 07 12  15 00 29.692   +13 15 07.11  3.5104 3.5502  84.0 23.0 1814  41
2020 08 07 13  15 00 30.712   +13 14 48.35  3.5109 3.5501  83.9 23.0 1822  41
2020 08 07 14  15 00 31.734   +13 14 29.58  3.5114 3.5501  83.9 23.0 1830  41
2020 08 07 15  15 00 32.757   +13 14 10.80  3.5119 3.5501  83.9 23.0 1837  41
2020 08 07 16  15 00 33.782   +13 13 52.03  3.5124 3.5500  83.9 23.0 1845  41
2020 08 07 17  15 00 34.808   +13 13 33.25  3.5129 3.5500  83.8 23.0 1853  41
2020 08 07 18  15 00 35.836   +13 13 14.47  3.5134 3.5499  83.8 23.0 1861  41
2020 08 07 19  15 00 36.865   +13 12 55.69  3.5139 3.5499  83.8 23.0 1868  41
2020 08 07 20  15 00 37.896   +13 12 36.90  3.5144 3.5499  83.7 23.0 1876  41
2020 08 07 21  15 00 38.929   +13 12 18.11  3.5149 3.5498  83.7 23.0 1884  41
2020 08 07 22  15 00 39.963   +13 11 59.32  3.5154 3.5498  83.7 23.0 1892  41
2020 08 07 23  15 00 40.998   +13 11 40.53  3.5158 3.5497  83.6 23.0 1899  41
2020 08 08 00  15 00 42.035   +13 11 21.73  3.5163 3.5497  83.6 23.0 1907  41
2020 08 08 01  15 00 43.074   +13 11 02.94  3.5168 3.5497  83.6 23.0 1915  41
2020 08 08 02  15 00 44.114   +13 10 44.14  3.5173 3.5496  83.6 23.0 1923  41
2020 08 08 03  15 00 45.156   +13 10 25.33  3.5178 3.5496  83.5 23.0 1931  41
2020 08 08 04  15 00 46.199   +13 10 06.53  3.5183 3.5495  83.5 23.0 1939  41
2020 08 08 05  15 00 47.243   +13 09 47.72  3.5188 3.5495  83.5 23.0 1947  41
2020 08 08 06  15 00 48.290   +13 09 28.91  3.5193 3.5495  83.4 23.0 1955  41